Weather History for Marrakech, Morocco

Change the Weather History Date:

Thursday, August 29, 2013

  Actual Average Record
Temperature  
Mean Temperature 76 °F -  
Max Temperature 89 °F 88 °F 109 °F (2006)
Min Temperature 63 °F 64 °F 62 °F (1996)
Cooling Degree Days 11    
Growing Degree Days 26 (Base 50)    
Moisture  
Dew Point 60 °F    
Average Humidity 59    
Maximum Humidity 83    
Minimum Humidity 29    
Precipitation  
Precipitation 0.00 in 0.01 in - ()
Sea Level Pressure  
Sea Level Pressure 29.99 in    
Wind  
Wind Speed 6 mph ()    
Max Wind Speed 12 mph    
Max Gust Speed -    
Visibility 6.1 miles    
Events      
Averages and records for this station are not official NWS values.
T = Trace of Precipitation, MM = Missing Value Source: Averaged Metar Reports

Daily Weather History Graph

Daily Weather History Graph

Search for Another Location

Airport:

Trip Planner

Search our weather history database for the weather conditions in past years. The results will help you decide how hot, cold, wet, or windy it might be!

Date:

Astronomy

Aug. 29, 2013 Rise Set
Actual Time 7:06 AM WEST 7:59 PM WEST
Civil Twilight 6:41 AM WEST 8:24 PM WEST
Nautical Twilight 6:11 AM WEST 8:53 PM WEST
Astronomical Twilight 5:41 AM WEST 9:23 PM WEST
Moon 12:57 AM WEST (8/29) 3:06 PM WEST (8/29)
Length of Visible Light 13h 43m
Length of Day
12h 53m
Last Quarter, 40% of the Moon is Illuminated
Aug 29
Last Quarter
Sep 5
New
Sep 12
First Quarter
Sep 19
Full
Sep 27
Last Quarter

Hourly Weather History & Observations

Time (WEST) Temp. Heat Index Dew Point Humidity Pressure Visibility Wind Dir Wind Speed Gust Speed Precip Events Conditions
12:00 AM 73.4 °F - 59.0 °F 61% 30.01 in 6.2 mi West 5.8 mph - N/A   Partly Cloudy
12:30 AM 71.6 °F - 59.0 °F 64% 29.98 in 6.2 mi WSW 5.8 mph - N/A   Partly Cloudy
1:00 AM 70 °F - 59 °F 59% 29.94 in 6 mi WSW 5.8 mph - -   Scattered Clouds
1:00 AM 69.8 °F - 59.0 °F 68% 29.98 in 6.2 mi WSW 4.6 mph - N/A   Partly Cloudy
1:30 AM 69.8 °F - 59.0 °F 68% 29.98 in 6.2 mi SW 6.9 mph - N/A   Partly Cloudy
2:00 AM 69.8 °F - 59.0 °F 68% 29.98 in 6.2 mi SW 8.1 mph - N/A   Partly Cloudy
2:30 AM 68.0 °F - 59.0 °F 73% 29.98 in 6.2 mi SW 6.9 mph - N/A   Partly Cloudy
3:00 AM 68.0 °F - 59.0 °F 73% 29.98 in 6.2 mi SW 8.1 mph - N/A   Partly Cloudy
3:30 AM 66.2 °F - 59.0 °F 78% 29.98 in 6.2 mi SW 6.9 mph - N/A   Unknown
4:00 AM 66 °F - 58 °F 69% 29.94 in 6 mi SW 6.9 mph - -  
4:00 AM 66.2 °F - 59.0 °F 78% 29.98 in 6.2 mi SW 6.9 mph - N/A   Unknown
4:30 AM 66.2 °F - 59.0 °F 78% 29.98 in 6.2 mi SW 5.8 mph - N/A   Unknown
5:00 AM 66.2 °F - 59.0 °F 78% 29.98 in 6.2 mi SW 6.9 mph - N/A   Scattered Clouds
5:30 AM 64.4 °F - 59.0 °F 83% 29.98 in 6.2 mi WSW 5.8 mph - N/A   Scattered Clouds
6:00 AM 64.4 °F - 59.0 °F 83% 29.98 in 6.2 mi SW 6.9 mph - N/A   Scattered Clouds
6:30 AM 64.4 °F - 59.0 °F 83% 29.98 in 6.2 mi SW 8.1 mph - N/A   Scattered Clouds
7:00 AM 64 °F - 58 °F 76% 29.96 in 6 mi SW 6.9 mph - -   Partly Cloudy
7:00 AM 64.4 °F - 59.0 °F 83% 29.98 in 6.2 mi SW 6.9 mph - N/A   Scattered Clouds
7:30 AM 64.4 °F - 59.0 °F 83% 30.01 in - WSW 5.8 mph - N/A   Clear
8:00 AM 64.4 °F - 59.0 °F 83% 30.01 in - SW 5.8 mph - N/A   Clear
8:30 AM 64.4 °F - 59.0 °F 83% 30.01 in 6.2 mi WSW 6.9 mph - N/A   Scattered Clouds
9:00 AM 66.2 °F - 59.0 °F 78% 30.01 in 6.2 mi WSW 8.1 mph - N/A   Scattered Clouds
9:30 AM 68.0 °F - 59.0 °F 73% 30.01 in 6.2 mi WSW 8.1 mph - N/A   Scattered Clouds
10:00 AM 70 °F - 60 °F 61% 29.97 in 6 mi SW 5.8 mph - -   Scattered Clouds
10:00 AM 69.8 °F - 59.0 °F 68% 30.01 in 6.2 mi SW 5.8 mph - N/A   Partly Cloudy
10:30 AM 71.6 °F - 59.0 °F 64% 30.01 in 6.2 mi SW 5.8 mph - N/A   Partly Cloudy
11:00 AM 73.4 °F - 60.8 °F 65% 30.04 in - WNW 5.8 mph - N/A   Clear
11:30 AM 75.2 °F - 60.8 °F 61% 30.04 in - NW 5.8 mph - N/A   Clear
12:00 PM 75.2 °F - 60.8 °F 61% 30.01 in - North 5.8 mph - N/A   Clear
12:30 PM 77.0 °F - 60.8 °F 57% 30.01 in - NNW 5.8 mph - N/A   Clear
1:00 PM 79 °F - 61 °F 44% 29.94 in 6 mi West 6.9 mph - -  
1:00 PM 78.8 °F - 60.8 °F 54% 30.01 in - West 6.9 mph - N/A   Clear
1:30 PM 80.6 °F 81.5 °F 60.8 °F 51% 30.01 in - North 5.8 mph - N/A   Clear
2:00 PM 82.4 °F 82.9 °F 60.8 °F 48% 30.01 in - NNW 4.6 mph - N/A   Clear
2:30 PM 82.4 °F 82.9 °F 60.8 °F 48% 30.01 in - NW 5.8 mph - N/A   Clear
3:00 PM 84.2 °F 84.4 °F 60.8 °F 45% 30.01 in - Variable 2.3 mph - N/A   Clear
3:30 PM 86.0 °F 86.1 °F 60.8 °F 43% 29.98 in - North 4.6 mph - N/A   Clear
4:00 PM 86 °F - 62 °F 34% 29.89 in 6 mi WNW 6.9 mph - -  
4:00 PM 86.0 °F 86.1 °F 60.8 °F 43% 29.98 in - West 6.9 mph - N/A   Clear
4:30 PM 87.8 °F 87.6 °F 60.8 °F 40% 29.98 in - Variable 4.6 mph - N/A   Clear
5:00 PM 87.8 °F 87.6 °F 60.8 °F 40% 29.98 in - Variable 5.8 mph - N/A   Clear
5:30 PM 87.8 °F 87.6 °F 60.8 °F 40% 29.98 in - NNW 5.8 mph - N/A   Clear
6:00 PM 89.6 °F 89.5 °F 60.8 °F 38% 29.95 in - North 3.5 mph - N/A   Clear
6:30 PM 87.8 °F 87.6 °F 60.8 °F 40% 29.95 in - West 5.8 mph - N/A   Clear
7:00 PM 88 °F - 60 °F 29% 29.86 in 6 mi WNW 5.8 mph - -  
7:00 PM 87.8 °F 87.6 °F 60.8 °F 40% 29.98 in - WNW 5.8 mph - N/A   Clear
7:30 PM 87.8 °F 87.6 °F 60.8 °F 40% 29.98 in - WNW 3.5 mph - N/A   Clear
8:00 PM 86.0 °F 86.1 °F 60.8 °F 43% 29.98 in - NW 4.6 mph - N/A   Clear
8:30 PM 86.0 °F 86.1 °F 60.8 °F 43% 29.98 in - North 8.1 mph - N/A   Clear
9:00 PM 84.2 °F 84.4 °F 60.8 °F 45% 30.01 in - North 9.2 mph - N/A   Clear
9:30 PM 80.6 °F 81.5 °F 60.8 °F 51% 30.01 in - North 11.5 mph - N/A   Clear
10:00 PM 79 °F - 60 °F 41% 29.96 in 6 mi North 8.1 mph - -  
10:00 PM 78.8 °F - 59.0 °F 51% 30.04 in - North 9.2 mph - N/A   Clear
10:30 PM 77.0 °F - 59.0 °F 54% 30.04 in - NNE 11.5 mph - N/A   Clear
11:00 PM 75.2 °F - 60.8 °F 61% 30.04 in - North 8.1 mph - N/A   Clear